Temp
67 69 68 68 67 68 68 70 69 70 70 68 67 63 61 61 61 61 62 61 62 62
65 64 64 64 65 67 65 66 67 68 68 68 67 65 62 61 60 60 60 59 60 59
64 63 61 61 59 57 57 57 60 61 61 58 59 63 64 61 61 59 58 56 55 54
61 61 58 54 52 52 52 52 54 55 56 56 55 56 59 57 56 55 54 55 54 53
57 54 53 51 51 50 50 51 52 53 53 54 54 53 52 51 50 47 46 47 49 49
56 53 50 52 52 50 49 50 51 52 50 51 52 52 51 50 49 53 47 45 45 44
52 50 49 50 52 50 48 49 49 50 50 51 51 52 51 49 47 47 46 46 46 45
51 50 49 48 48 49 48 47 47 47 49 48 48 49 47 46 44 43 43 43 44 45
52 50 48 48 52 52 51 51 51 50 50 47 46 46 47 45 42 42 41 42 44 46
52 49 47 48 50 50 49 50 50 50 50 48 48 45 46 46 46 47 49 49 50 50
52 49 50 50 47 49 50 49 49 50 50 50 50 45 44 47 51 50 49 49 50 51
50 49 47 45 48 50 50 50 50 50 47 46 47 44 44 47 48 48 49 50 49 51
48 48 46 46 49 50 51 49 49 48 47 46 46 43 43 48 51 49 51 51 52 45
51 47 47 51 52 51 48 47 46 46 48 48 47 47 43 43 53 53 53 51 49 50
MSLP
1014.61 1013.81 1012.96 1012.22 1011.73 1010.66 1010.07 1009.27 1008.80 1008.27 1007.84 1007.62 1007.46 1007.32 1007.27 1007.07 1006.78 1006.51 1006.04 1005.84 1005.95 1006.37
1014.97 1014.26 1013.46 1012.66 1011.97 1011.03 1010.56 1009.80 1009.10 1008.38 1007.91 1007.59 1007.39 1007.51 1007.34 1006.95 1006.82 1006.73 1006.61 1006.47 1006.54 1006.63
1015.05 1014.52 1013.87 1013.16 1012.54 1012.04 1011.30 1010.55 1009.57 1008.77 1008.42 1008.46 1008.41 1007.99 1007.57 1007.38 1007.12 1007.18 1007.32 1007.62 1007.56 1007.47
1015.74 1015.12 1014.53 1014.27 1013.82 1013.14 1012.24 1011.36 1010.55 1009.99 1009.61 1009.28 1009.00 1008.67 1008.28 1008.09 1008.00 1008.12 1008.32 1008.25 1008.31 1008.58
1016.46 1016.06 1015.53 1015.08 1014.47 1013.89 1013.15 1012.23 1011.54 1010.96 1010.54 1010.07 1009.87 1009.77 1009.40 1009.42 1009.48 1009.23 1010.01 1010.22 1009.69 1010.06
1016.97 1016.69 1016.32 1015.84 1015.17 1014.66 1013.89 1013.26 1012.48 1011.89 1011.52 1011.22 1010.94 1010.88 1010.80 1010.71 1010.70 1010.31 1011.12 1011.54 1011.70 1011.60
1017.52 1017.37 1017.14 1016.68 1015.87 1015.37 1014.86 1014.26 1013.68 1013.30 1012.78 1012.35 1011.83 1011.58 1011.70 1011.73 1011.91 1012.06 1012.11 1011.75 1012.67 1012.36
1018.01 1017.91 1017.77 1017.33 1016.82 1016.19 1015.59 1015.25 1014.85 1014.33 1013.78 1013.48 1012.99 1012.77 1012.75 1012.93 1013.17 1013.26 1013.32 1013.37 1013.48 1013.21
1018.27 1018.30 1018.22 1017.86 1017.27 1016.77 1016.34 1015.89 1015.44 1015.06 1014.66 1014.52 1014.50 1014.25 1014.07 1014.10 1014.09 1014.02 1013.91 1013.95 1013.63 1013.51
1018.81 1018.84 1018.76 1018.51 1017.96 1017.56 1017.19 1016.75 1016.28 1015.93 1015.55 1015.29 1015.29 1015.25 1015.09 1014.89 1014.67 1014.31 1014.08 1013.89 1013.74 1013.82
1019.30 1019.31 1019.10 1018.87 1018.81 1018.35 1017.95 1017.57 1017.18 1016.76 1016.40 1016.05 1016.09 1016.07 1015.74 1015.29 1014.93 1014.85 1014.83 1014.76 1014.56 1014.31
1020.11 1019.83 1019.91 1019.71 1019.29 1018.99 1018.59 1018.25 1017.89 1017.65 1017.49 1017.08 1016.85 1016.67 1016.25 1015.69 1015.41 1015.27 1015.17 1015.05 1014.94 1014.69
1020.96 1020.73 1020.64 1020.49 1019.95 1019.66 1019.17 1019.02 1018.68 1018.33 1018.07 1017.83 1017.37 1017.17 1016.70 1016.02 1015.55 1015.30 1015.09 1015.09 1015.05 1015.36
1021.39 1021.41 1021.32 1020.85 1020.48 1020.14 1019.90 1019.66 1019.25 1018.80 1018.41 1018.09 1017.96 1017.54 1017.24 1016.68 1015.92 1015.58 1015.46 1015.51 1015.61 1015.68
Wind_Speed
13 10 11 12 13 12 12 12 14 13 11 8 6 5 5 4 4 5 2 2 3 3
12 15 14 17 16 12 16 14 16 14 11 9 6 4 4 2 3 4 5 5 4 4
15 16 15 14 15 15 13 13 13 12 10 10 9 9 6 3 3 3 4 4 5 5
16 17 14 11 12 13 12 13 12 12 10 10 10 9 8 8 9 9 6 8 9 11
13 12 11 10 11 11 11 12 13 13 13 12 12 10 10 11 11 14 14 13 14 13
13 12 12 12 13 12 11 13 13 13 14 13 12 11 12 12 11 16 13 12 11 10
10 10 10 11 13 14 13 15 14 15 15 15 12 10 10 11 12 12 12 12 9 8
7 8 9 10 11 13 13 12 12 12 13 14 13 10 11 11 10 10 11 10 9 7
8 9 9 11 13 13 14 15 15 15 15 15 10 21 20 13 9 9 7 5 6 8
9 9 9 9 12 14 14 14 15 15 15 15 14 18 15 14 8 9 10 10 9 7
8 8 9 13 12 12 12 13 13 14 14 13 13 17 13 9 10 9 10 9 8 8
10 10 10 11 12 11 10 11 11 11 12 11 11 17 14 8 8 8 9 9 10 8
9 9 9 9 11 10 9 10 8 10 10 13 10 15 14 10 6 8 7 7 8 12
9 8 8 9 9 9 9 8 9 9 9 10 12 12 14 15 9 7 7 7 6 5
Wind_Direction
344 335 320 322 319 311 317 315 320 315 312 300 301 315 326 319 322 311 284 214 197 165
339 334 329 327 326 324 323 323 320 316 313 304 316 335 341 346 356 349 359 31 60 65
347 343 341 333 340 344 338 342 338 347 9 26 3 347 335 339 31 39 44 36 54 57
353 350 4 9 357 353 355 356 8 13 21 21 15 1 358 41 41 44 50 64 65 54
2 2 9 4 10 7 6 10 15 22 24 25 33 28 43 51 58 75 47 38 49 53
14 14 12 10 17 12 12 15 18 23 26 24 28 42 48 57 61 74 71 71 41 45
33 16 6 8 22 23 18 19 18 23 24 26 24 42 51 55 56 56 60 63 63 59
49 35 16 19 17 21 24 23 25 22 34 34 34 37 54 60 61 62 60 51 44 38
48 44 24 19 24 25 26 26 29 33 42 43 40 52 61 62 56 54 55 57 65 64
36 44 34 29 26 29 30 32 35 36 37 42 40 38 48 59 61 51 44 49 57 60
31 58 35 31 32 33 36 37 37 36 36 39 38 23 20 25 51 57 62 58 60 63
24 49 40 34 29 32 33 33 35 35 28 26 31 16 18 16 45 59 66 60 49 51
40 55 47 35 40 37 35 32 26 23 27 24 24 19 15 14 61 61 68 59 56 45
47 52 37 46 38 29 28 28 20 22 24 33 29 38 21 10 53 52 55 47 36 23